N8VIM Weather Reports


Display with metric or nautical units.
time (UTC)temp
F
wind
direction
speed
MPH
gust
MPH
rain 1hr
in
rain 24hr
in
rain mn
in
humidity
%
barometer
mb
20190922115246 54 0 0.0 0.0 254.27 0.00 0.00 100 1020.9
20190922114746 54 276 0.0 1.0 254.27 0.00 0.00 99 1020.8
20190922114251 53 280 1.0 2.0 254.27 0.00 0.00 100 1020.9
20190922113746 53 0 0.0 0.0 254.27 0.00 0.00 99 1021.0
20190922113247 53 0 0.0 0.0 254.27 0.00 0.00 99 1020.9
20190922112747 53 0 0.0 0.0 254.27 0.00 0.00 99 1020.8
20190922112246 53 0 0.0 0.0 254.27 0.00 0.00 99 1020.9
20190922111247 53 0 0.0 0.0 254.27 0.00 0.00 99 1021.1
20190922110746 53 0 0.0 0.0 254.27 0.00 0.00 99 1021.2
20190922110248 53 0 0.0 0.0 254.27 0.00 0.00 99 1021.2
20190922105747 54 0 0.0 0.0 254.27 0.00 0.00 99 1021.2
20190922105246 54 0 0.0 0.0 254.27 0.00 0.00 99 1021.1
20190922104746 54 0 0.0 0.0 254.27 0.00 0.00 99 1021.1
20190922103747 54 0 0.0 0.0 254.27 0.00 0.00 99 1021.1
20190922103246 54 0 0.0 0.0 254.27 0.00 0.00 99 1021.0
20190922102748 54 0 0.0 0.0 254.27 0.00 0.00 99 1021.0
20190922102246 54 0 0.0 0.0 254.27 0.00 0.00 99 1020.9
20190922101247 55 0 0.0 0.0 254.27 0.00 0.00 99 1021.0
20190922100746 55 0 0.0 0.0 254.27 0.00 0.00 99 1020.8
20190922100246 55 262 0.0 1.0 254.27 0.00 0.00 99 1020.8
20190922095750 55 278 0.0 2.0 254.27 0.00 0.00 99 1020.9
20190922095246 56 293 2.0 3.0 254.27 0.00 0.00 99 1020.9
20190922094748 56 281 2.0 3.0 254.27 0.00 0.00 99 1020.9
20190922094247 56 0 0.0 0.0 254.27 0.00 0.00 99 1020.9
20190922093746 56 0 0.0 0.0 254.27 0.00 0.00 99 1020.8
20190922093246 56 0 0.0 0.0 254.27 0.00 0.00 99 1020.8
20190922092747 56 0 0.0 0.0 254.27 0.00 0.00 99 1020.9
20190922092247 56 0 0.0 0.0 254.27 0.00 0.00 99 1020.8
20190922091747 56 0 0.0 0.0 254.27 0.00 0.00 98 1020.9
20190922090746 56 0 0.0 0.0 254.27 0.00 0.00 99 1020.9
20190922090246 56 0 0.0 0.0 254.27 0.00 0.00 99 1021.0
20190922085747 56 0 0.0 0.0 254.27 0.00 0.00 99 1021.1
20190922084746 57 0 0.0 0.0 254.27 0.00 0.00 98 1021.1
20190922084247 57 0 0.0 0.0 254.27 0.00 0.00 99 1021.1
20190922083746 57 0 0.0 0.0 254.27 0.00 0.00 99 1021.1
20190922083246 58 0 0.0 0.0 254.27 0.00 0.00 99 1021.1
20190922082746 58 0 0.0 0.0 254.27 0.00 0.00 99 1021.0
20190922082246 58 0 0.0 0.0 254.27 0.00 0.00 98 1020.9
20190922081747 58 290 0.0 4.0 254.27 0.00 0.00 99 1021.0
20190922081247 58 273 0.0 2.0 254.27 0.00 0.00 98 1020.9
20190922080246 58 0 1.0 0.0 254.27 0.00 0.00 98 1020.9
20190922075746 58 0 0.0 0.0 254.27 0.00 0.00 98 1020.9
20190922075246 58 0 0.0 0.0 254.27 0.00 0.00 98 1020.9
20190922074246 58 0 0.0 0.0 254.27 0.00 0.00 98 1021.0
20190922073746 58 0 0.0 0.0 254.27 0.00 0.00 98 1021.0
20190922072754 59 239 0.0 1.0 254.27 0.00 0.00 98 1020.9
20190922072246 59 0 0.0 0.0 254.27 0.00 0.00 98 1021.0
20190922071746 59 0 0.0 0.0 254.27 0.00 0.00 98 1021.0
20190922071248 60 0 0.0 0.0 254.27 0.00 0.00 98 1020.9
20190922070746 59 0 0.0 0.0 254.27 0.00 0.00 98 1021.0
20190922065746 59 290 1.0 3.0 254.27 0.00 0.00 98 1021.0
20190922065246 59 278 2.0 3.0 254.27 0.00 0.00 98 1021.0
20190922064746 59 285 2.0 2.0 254.27 0.00 0.00 98 1021.1
20190922064246 59 304 1.0 3.0 254.27 0.00 0.00 98 1021.1
20190922063746 59 283 2.0 3.0 254.27 0.00 0.00 98 1021.1
20190922063246 59 269 2.0 3.0 254.27 0.00 0.00 98 1021.2
20190922062746 59 0 0.0 0.0 254.27 0.00 0.00 98 1021.3
20190922062246 59 0 0.0 0.0 254.27 0.00 0.00 97 1021.4
20190922061746 60 0 0.0 0.0 254.27 0.00 0.00 98 1021.5
20190922061246 59 0 0.0 0.0 254.27 0.00 0.00 97 1021.4
20190922060746 60 0 0.0 0.0 254.27 0.00 0.00 97 1021.4
20190922060246 60 0 0.0 0.0 254.27 0.00 0.00 97 1021.4
20190922055746 60 0 0.0 0.0 254.27 0.00 0.00 97 1021.4
20190922054746 60 269 1.0 1.0 254.27 0.00 0.00 97 1021.4
20190922054246 61 0 0.0 0.0 254.27 0.00 0.00 97 1021.5
20190922053745 61 273 0.0 2.0 254.27 0.00 0.00 97 1021.6
20190922053246 61 271 2.0 1.0 254.27 0.00 0.00 97 1021.6
20190922052746 61 0 0.0 0.0 254.27 0.00 0.00 97 1021.6
20190922052245 61 0 0.0 0.0 254.27 0.00 0.00 97 1021.6
20190922051746 61 290 0.0 2.0 254.27 0.00 0.00 97 1021.7
20190922051246 61 301 0.0 2.0 254.27 0.00 0.00 97 1021.7
20190922050745 61 280 2.0 3.0 254.27 0.00 0.00 97 1021.6
20190922050245 61 284 1.0 2.0 254.27 0.00 0.00 97 1021.7
20190922045747 61 281 1.0 2.0 254.27 0.00 0.00 97 1021.6
20190922045245 61 287 1.0 3.0 254.27 0.00 0.00 97 1021.5
20190922044745 61 305 2.0 2.0 254.27 0.00 0.00 96 1021.5
20190922044246 61 0 0.0 0.0 254.27 0.00 0.00 96 1021.5
20190922043745 61 295 0.0 3.0 254.27 0.00 0.00 96 1021.5
20190922043246 61 288 2.0 2.0 254.27 0.00 0.00 96 1021.5
20190922042746 61 290 1.0 2.0 254.27 0.00 0.00 96 1021.5
20190922042245 61 284 1.0 2.0 254.27 0.00 0.00 96 1021.6
20190922041746 61 0 0.0 0.0 254.27 0.00 0.00 96 1021.5
20190922041246 61 0 0.0 0.0 254.27 0.00 0.00 96 1021.5
20190922040745 61 0 0.0 0.0 254.27 0.00 0.00 96 1021.4
20190922040245 61 0 0.0 0.0 254.27 0.00 0.00 95 1021.4
20190922035746 62 0 0.0 0.0 254.27 0.00 0.00 95 1021.4
20190922035245 62 264 0.0 1.0 254.27 0.00 0.00 95 1021.5
20190922034745 62 271 0.0 1.0 254.27 0.00 0.00 95 1021.5
20190922034246 62 273 1.0 3.0 254.27 0.00 0.00 95 1021.4
20190922033745 62 281 2.0 3.0 254.27 0.00 0.00 95 1021.5
20190922033245 62 283 2.0 3.0 254.27 0.00 0.00 95 1021.5
20190922032747 62 266 3.0 3.0 254.27 0.00 0.00 95 1021.5
20190922032245 63 277 2.0 2.0 254.27 0.00 0.00 94 1021.5
20190922031746 63 0 0.0 0.0 254.27 0.00 0.00 93 1021.4
20190922031246 63 0 0.0 0.0 254.27 0.00 0.00 93 1021.5
20190922030745 63 0 0.0 0.0 254.27 0.00 0.00 93 1021.5
20190922030245 63 0 0.0 0.0 254.27 0.00 0.00 93 1021.5
20190922025753 63 0 0.0 0.0 254.27 0.00 0.00 93 1021.6
20190922025245 63 0 0.0 0.0 254.27 0.00 0.00 92 1021.6
20190922024745 63 0 0.0 0.0 254.27 0.00 0.00 92 1021.5
20190922024255 64 0 0.0 0.0 254.27 0.00 0.00 92 1021.5
20190922023745 64 0 0.0 0.0 254.27 0.00 0.00 91 1021.5
20190922023246 64 0 0.0 0.0 254.27 0.00 0.00 91 1021.5
20190922022747 64 0 0.0 0.0 254.27 0.00 0.00 90 1021.5
20190922022246 64 0 0.0 0.0 254.27 0.00 0.00 90 1021.5
20190922021745 64 0 0.0 0.0 254.27 0.00 0.00 89 1021.4
20190922021246 64 0 0.0 0.0 254.27 0.00 0.00 89 1021.4
20190922020746 65 0 0.0 0.0 254.27 0.00 0.00 89 1021.4
20190922020245 65 0 0.0 0.0 254.27 0.00 0.00 89 1021.4
20190922015746 65 0 0.0 0.0 254.27 0.00 0.00 88 1021.5
20190922015245 65 0 0.0 0.0 254.27 0.00 0.00 88 1021.4
20190922014745 65 0 0.0 0.0 254.27 0.00 0.00 88 1021.3
20190922014246 65 0 0.0 0.0 254.27 0.00 0.00 88 1021.3
20190922013745 65 0 0.0 0.0 254.27 0.00 0.00 87 1021.3
20190922013245 66 0 0.0 0.0 254.27 0.00 0.00 87 1021.2
20190922012746 66 0 0.0 0.0 254.27 0.00 0.00 87 1021.3
20190922012246 66 0 0.0 0.0 254.27 0.00 0.00 86 1021.3
20190922011745 66 0 0.0 0.0 254.27 0.00 0.00 85 1021.3
20190922011246 66 0 0.0 0.0 254.27 0.00 0.00 85 1021.3
20190922010745 67 0 0.0 0.0 254.27 0.00 0.00 85 1021.3
20190922010245 67 0 0.0 0.0 254.27 0.00 0.00 84 1021.2
20190922005746 67 0 0.0 0.0 254.27 0.00 0.00 83 1021.2
20190922005245 67 0 0.0 0.0 254.27 0.00 0.00 83 1021.2
20190922004745 68 0 0.0 0.0 254.27 0.00 0.00 83 1021.1
20190922004247 68 0 0.0 0.0 254.27 0.00 0.00 82 1021.1
20190922003745 68 0 0.0 0.0 254.27 0.00 0.00 81 1021.0
20190922003245 68 0 0.0 0.0 254.27 0.00 0.00 81 1021.0
20190922002745 68 0 0.0 0.0 254.27 0.00 0.00 81 1021.0
20190922002245 68 0 0.0 0.0 254.27 0.00 0.00 80 1020.9
20190922001745 69 0 0.0 0.0 254.27 0.00 0.00 79 1020.8
20190922001245 69 0 0.0 0.0 254.27 0.00 0.00 79 1020.7
20190922000745 69 0 0.0 0.0 254.27 0.00 0.00 78 1020.7
20190922000245 70 0 0.0 0.0 254.27 0.00 0.00 78 1020.7
20190921235745 70 0 0.0 0.0 254.27 0.00 0.00 76 1020.8
20190921235245 70 0 0.0 0.0 254.27 0.00 0.00 76 1020.7
20190921234745 71 0 0.0 0.0 254.27 0.00 0.00 75 1020.7
20190921234245 71 0 0.0 0.0 254.27 0.00 0.00 74 1020.6
20190921233745 71 0 0.0 0.0 254.27 0.00 0.00 73 1020.6
20190921232746 72 0 0.0 0.0 254.27 0.00 0.00 71 1020.5
20190921232245 73 0 0.0 0.0 254.27 0.00 0.00 70 1020.4
20190921231745 73 0 0.0 0.0 254.27 0.00 0.00 69 1020.4
20190921231245 74 0 0.0 0.0 254.27 0.00 0.00 69 1020.5
20190921230745 74 0 0.0 0.0 254.27 0.00 0.00 68 1020.5
20190921230245 74 0 0.0 0.0 254.27 0.00 0.00 68 1020.5
20190921225746 74 0 0.0 0.0 254.27 0.00 0.00 68 1020.4
20190921225245 75 0 0.0 0.0 254.27 0.00 0.00 67 1020.5
20190921224746 75 0 0.0 0.0 254.27 0.00 0.00 67 1020.5
20190921224245 75 0 0.0 0.0 254.27 0.00 0.00 66 1020.4
20190921223745 75 0 0.0 0.0 254.27 0.00 0.00 65 1020.4
20190921223245 76 0 0.0 0.0 254.27 0.00 0.00 65 1020.4
20190921222745 76 0 0.0 0.0 254.27 0.00 0.00 64 1020.4
20190921222245 77 0 0.0 0.0 254.27 0.00 0.00 63 1020.4
20190921221745 77 0 0.0 0.0 254.27 0.00 0.00 63 1020.5
20190921221245 77 0 0.0 0.0 254.27 0.00 0.00 62 1020.5
20190921220244 78 0 0.0 0.0 254.27 0.00 0.00 61 1020.5
20190921215745 79 0 0.0 0.0 254.27 0.00 0.00 60 1020.6
20190921215244 79 0 0.0 0.0 254.27 0.00 0.00 60 1020.6
20190921214744 80 0 0.0 0.0 254.27 0.00 0.00 58 1020.6
20190921214246 80 0 0.0 0.0 254.27 0.00 0.00 57 1020.5
20190921213744 81 0 0.0 0.0 254.27 0.00 0.00 56 1020.5
20190921213244 82 169 0.0 4.0 254.27 0.00 0.00 55 1020.5
20190921212749 82 186 1.0 5.0 254.27 0.00 0.00 53 1020.5
20190921212244 83 188 0.0 3.0 254.27 0.00 0.00 53 1020.5
20190921211744 82 197 0.0 3.0 254.27 0.00 0.00 53 1020.5
20190921211245 83 211 2.0 4.0 254.27 0.00 0.00 52 1020.5
20190921210744 83 294 0.0 2.0 254.27 0.00 0.00 52 1020.6
20190921210244 83 217 0.0 2.0 254.27 0.00 0.00 51 1020.5
20190921205745 84 197 2.0 3.0 254.27 0.00 0.00 51 1020.5
20190921205245 84 183 0.0 5.0 254.27 0.00 0.00 51 1020.5
20190921204245 85 0 0.0 0.0 254.27 0.00 0.00 47 1020.4
20190921203744 86 0 0.0 0.0 254.27 0.00 0.00 46 1020.5
20190921203244 86 0 0.0 0.0 254.27 0.00 0.00 45 1020.4
20190921202745 86 0 0.0 0.0 254.27 0.00 0.00 45 1020.5
20190921202244 85 0 0.0 0.0 254.27 0.00 0.00 47 1020.5
20190921201744 85 198 0.0 3.0 254.27 0.00 0.00 44 1020.4
20190921201245 84 180 0.0 2.0 254.27 0.00 0.00 45 1020.5
20190921200744 84 155 1.0 4.0 254.27 0.00 0.00 46 1020.5
20190921200244 84 107 1.0 2.0 254.27 0.00 0.00 47 1020.6
20190921195745 85 191 0.0 3.0 254.27 0.00 0.00 45 1020.6
20190921195244 85 210 2.0 5.0 254.27 0.00 0.00 45 1020.5
20190921194744 85 293 2.0 4.0 254.27 0.00 0.00 47 1020.6
20190921194245 86 150 0.0 5.0 254.27 0.00 0.00 46 1020.6
20190921193744 86 165 0.0 2.0 254.27 0.00 0.00 43 1020.6
20190921193244 86 0 0.0 0.0 254.27 0.00 0.00 44 1020.7
20190921192745 86 159 0.0 2.0 254.27 0.00 0.00 44 1020.7
20190921192244 86 108 0.0 3.0 254.27 0.00 0.00 43 1020.7
20190921191245 85 0 0.0 0.0 254.27 0.00 0.00 46 1020.7
20190921190744 85 120 0.0 3.0 254.27 0.00 0.00 46 1020.8
20190921190244 84 70 0.0 2.0 254.27 0.00 0.00 45 1020.8
20190921185750 84 160 0.0 6.0 254.27 0.00 0.00 46 1020.7
20190921185244 83 167 4.0 5.0 254.27 0.00 0.00 47 1020.7
20190921184744 83 98 0.0 1.0 254.27 0.00 0.00 48 1020.8
20190921184245 83 118 0.0 3.0 254.27 0.00 0.00 48 1020.8
20190921183744 83 0 0.0 0.0 254.27 0.00 0.00 48 1020.9
20190921183244 83 0 0.0 0.0 254.27 0.00 0.00 47 1021.0
20190921182745 84 174 0.0 5.0 254.27 0.00 0.00 47 1020.9
20190921182244 84 285 1.0 2.0 254.27 0.00 0.00 47 1020.9
20190921181744 84 179 0.0 5.0 254.27 0.00 0.00 47 1021.0
20190921181245 85 142 2.0 6.0 254.27 0.00 0.00 46 1021.0
20190921180744 85 0 0.0 0.0 254.27 0.00 0.00 45 1021.1
20190921180244 85 0 0.0 0.0 254.27 0.00 0.00 46 1021.1
20190921175745 85 55 0.0 1.0 254.27 0.00 0.00 46 1021.2
20190921174744 84 0 0.0 0.0 254.27 0.00 0.00 48 1021.2
20190921174245 84 0 0.0 0.0 254.27 0.00 0.00 49 1021.2
20190921173744 83 0 0.0 0.0 254.27 0.00 0.00 49 1021.3
20190921172750 83 0 0.0 0.0 254.27 0.00 0.00 48 1021.3
20190921172244 83 0 0.0 0.0 254.27 0.00 0.00 52 1021.4
20190921171744 82 231 0.0 3.0 254.27 0.00 0.00 52 1021.4
20190921171245 82 219 0.0 4.0 254.27 0.00 0.00 52 1021.5
20190921170744 81 167 0.0 5.0 254.27 0.00 0.00 53 1021.6
20190921170244 81 257 0.0 4.0 254.27 0.00 0.00 51 1021.7
20190921165744 81 167 1.0 2.0 254.27 0.00 0.00 54 1021.7
20190921165244 80 190 0.0 4.0 254.27 0.00 0.00 53 1021.8
20190921164245 80 215 1.0 6.0 254.27 0.00 0.00 54 1021.9
20190921163744 79 285 2.0 4.0 254.27 0.00 0.00 55 1022.0
20190921163244 80 162 0.0 4.0 254.27 0.00 0.00 55 1022.0
20190921162744 80 125 3.0 5.0 254.27 0.00 0.00 57 1022.1
20190921162244 80 93 0.0 4.0 254.27 0.00 0.00 56 1022.1
20190921161745 79 267 0.0 4.0 254.27 0.00 0.00 56 1022.3
20190921161247 80 302 0.0 1.0 254.27 0.00 0.00 58 1022.2
20190921160744 79 34 0.0 3.0 254.27 0.00 0.00 56 1022.3
20190921160244 79 0 0.0 0.0 254.27 0.00 0.00 58 1022.4
20190921155745 79 97 0.0 1.0 254.27 0.00 0.00 58 1022.5
20190921155244 78 104 0.0 1.0 254.27 0.00 0.00 60 1022.6
20190921154245 78 121 1.0 2.0 254.27 0.00 0.00 62 1022.7
20190921153744 78 117 0.0 1.0 254.27 0.00 0.00 64 1022.7
20190921152744 77 125 1.0 3.0 254.27 0.00 0.00 66 1022.7
20190921152244 76 0 0.0 0.0 254.27 0.00 0.00 67 1022.7
20190921151247 76 146 0.0 3.0 254.27 0.00 0.00 70 1022.8
20190921150744 75 77 0.0 1.0 254.27 0.00 0.00 70 1022.8
20190921150244 74 128 0.0 3.0 254.27 0.00 0.00 70 1022.9
20190921145744 74 0 0.0 0.0 254.27 0.00 0.00 72 1023.1
20190921144744 73 0 0.0 0.0 254.27 0.00 0.00 75 1023.1
20190921144244 72 0 0.0 0.0 254.27 0.00 0.00 76 1023.1
20190921143244 71 138 0.0 2.0 254.27 0.00 0.00 78 1023.0
20190921142746 71 145 1.0 1.0 254.27 0.00 0.00 79 1023.1
20190921141744 69 0 0.0 0.0 254.27 0.00 0.00 81 1023.0
20190921141244 69 0 0.0 0.0 254.27 0.00 0.00 84 1023.1
20190921140743 68 0 0.0 0.0 254.27 0.00 0.00 86 1023.1
20190921140243 68 0 0.0 0.0 254.27 0.00 0.00 87 1023.0
20190921135749 67 0 0.0 0.0 254.27 0.00 0.00 88 1023.0
20190921134744 66 0 0.0 0.0 254.27 0.00 0.00 92 1023.0
20190921134248 65 0 0.0 0.0 254.27 0.00 0.00 94 1023.0
20190921133744 64 0 0.0 0.0 254.27 0.00 0.00 96 1023.0
20190921133244 63 0 0.0 0.0 254.27 0.00 0.00 96 1023.0
20190921132744 62 0 0.0 0.0 254.27 0.00 0.00 96 1022.9
20190921132244 62 0 0.0 0.0 254.27 0.00 0.00 97 1022.9
20190921131744 61 0 0.0 0.0 254.27 0.00 0.00 98 1022.9
20190921131245 60 0 0.0 0.0 254.27 0.00 0.00 98 1022.9
20190921130745 60 0 0.0 0.0 254.27 0.00 0.00 98 1022.9
20190921130243 59 0 0.0 0.0 254.27 0.00 0.00 98 1023.0
20190921125744 59 0 0.0 0.0 254.27 0.00 0.00 98 1022.9
20190921125243 58 0 0.0 0.0 254.27 0.00 0.00 98 1022.9
20190921124743 58 0 0.0 0.0 254.27 0.00 0.00 98 1022.9
20190921124245 57 0 0.0 0.0 254.27 0.00 0.00 98 1023.0
20190921123745 57 0 0.0 0.0 254.27 0.00 0.00 98 1022.9
20190921123243 56 0 0.0 0.0 254.27 0.00 0.00 98 1022.9
20190921122744 56 0 0.0 0.0 254.27 0.00 0.00 98 1022.8
20190921122243 56 0 0.0 0.0 254.27 0.00 0.00 98 1022.8
20190921121244 55 0 0.0 0.0 254.27 0.00 0.00 98 1022.7
20190921120743 55 0 0.0 0.0 254.27 0.00 0.00 98 1022.7
20190921120243 54 0 0.0 0.0 254.27 0.00 0.00 98 1022.6
20190921115745 54 0 0.0 0.0 254.27 0.00 0.00 98 1022.6